This is the latest recevied weather packets stored in our database for station/object AD8BW. If no packets are shown the sender has not sent any weather packets the latest 10 day(s).
| Time | Temp. | Humidity | Pressure | Rain* | Wind** | Luminosity | Snow |
|---|---|---|---|---|---|---|---|
| 1777998275 | 10° C | 80% | 1005.9 hPa | 0 mm | - | 70 W/m² | - |
| 1777997677 | 10° C | 80% | 1006 hPa | 0 mm | - | 77 W/m² | - |
| 1777997077 | 10° C | 78% | 1005.9 hPa | 0 mm | - | 62 W/m² | - |
| 1777996475 | 10° C | 77% | 1005.9 hPa | 0 mm | - | 63 W/m² | - |
| 1777995874 | 10° C | 76% | 1005.9 hPa | 0 mm | - | 69 W/m² | - |
| 1777995275 | 10.56° C | 74% | 1006.1 hPa | 0 mm | - | 70 W/m² | - |
| 1777994675 | 10.56° C | 72% | 1006 hPa | 0 mm | - | 83 W/m² | - |
| 1777994076 | 11.11° C | 71% | 1005.6 hPa | 0 mm | - | 86 W/m² | - |
| 1777993470 | 11.11° C | 72% | 1005.6 hPa | 0 mm | - | 88 W/m² | - |
| 1777992871 | 11.11° C | 73% | 1005.1 hPa | 0 mm | - | 95 W/m² | - |
| 1777992270 | 11.11° C | 73% | 1004.9 hPa | 0 mm | - | 76 W/m² | - |
| 1777991670 | 11.11° C | 73% | 1005.1 hPa | 0 mm | - | 88 W/m² | - |
| 1777991070 | 11.11° C | 73% | 1005 hPa | 0 mm | - | 81 W/m² | - |
| 1777990470 | 11.11° C | 73% | 1004.9 hPa | 0 mm | - | 77 W/m² | - |
| 1777989869 | 11.67° C | 72% | 1005 hPa | 0 mm | - | 33 W/m² | - |
| 1777989268 | 11.67° C | 70% | 1004.5 hPa | 0 mm | - | 65 W/m² | - |
| 1777988679 | 11.67° C | 71% | 1004.2 hPa | 0 mm | - | 181 W/m² | - |
| 1777988077 | 11.11° C | 73% | 1003.6 hPa | 0 mm | - | 67 W/m² | - |
| 1777987465 | 11.11° C | 72% | 1003.9 hPa | 0 mm | - | 16 W/m² | - |
| 1777986862 | 11.11° C | 72% | 1003.3 hPa | 0 mm | - | 51 W/m² | - |
| 1777986264 | 11.67° C | 72% | 1003.1 hPa | 0 mm | - | 125 W/m² | - |
| 1777985664 | 11.67° C | 72% | 1003.2 hPa | 0 mm | - | 160 W/m² | - |
| 1777985062 | 11.67° C | 75% | 1003.1 hPa | 0 mm | - | 139 W/m² | - |
| 1777984463 | 11.67° C | 76% | 1003.2 hPa | 0 mm | - | 113 W/m² | - |
| 1777983862 | 11.67° C | 78% | 1002.9 hPa | 0 mm | - | 172 W/m² | - |
* Rain latest hour (hover to see other rain measurements)
** Current wind speed in m/s (hover to see current wind gust speed)